This demonstration page uses our WeatherBlox Daily Observations layout. Learn more.

Left ArrowRight Arrow

Hourly Observations for May 27, 2022

Temp ( °F °C ) Dew Point ( °F °C ) Humidity (%) Winds ( mph kmh ) Pressure ( in mb ) Visibility ( mi km ) Precip ( " mm )
12:53 am 00:53 Clear 52 11.1 50 10 93 93 W 6 9 29.96 1014 10 16 0.00 0.00
1:53 am 01:53 Clear 52 11.1 49 9.4 89 89 W 5 7 29.96 1015 10 16 0.00 0.00
2:53 am 02:53 Clear 54 12.2 50 10 87 87 Calm 29.96 1015 10 16 0.00 0.00
3:53 am 03:53 Clear 52 11.1 48 8.9 86 86 Calm 29.96 1014 10 16 0.00 0.00
4:53 am 04:53 Clear 52 11.1 49 9.4 89 89 Calm 29.97 1015 10 16 0.00 0.00
5:53 am 05:53 Clear 54 12.2 48 8.9 80 80 W 3 6 29.98 1015 10 16 0.00 0.00
6:53 am 06:53 Sunny 52 11.1 48 8.9 86 86 Calm 30.01 1016 10 16 0.00 0.00
7:53 am 07:53 Sunny 59 15 53 11.7 81 81 Calm 30.01 1016 10 16 0.00 0.00
8:53 am 08:53 Sunny 67 19.4 53 11.7 61 61 WSW 5 7 30.01 1016 10 16 0.00 0.00
9:53 am 09:53 Sunny 74 23.3 54 12.2 50 50 W 7 11 30.01 1016 10 16 0.00 0.00
10:53 am 10:53 Sunny 77 25 53 11.7 43 43 W 7 11 30.00 1016 10 16 0.00 0.00
11:53 am 11:53 Sunny 79 26.1 54 12.2 42 42 SSW 7 11 30.00 1016 10 16 0.00 0.00
12:53 pm 12:53 Sunny 80 26.7 51 10.6 37 37 VRB 6 9 29.98 1015 10 16 0.00 0.00
1:53 pm 13:53 Sunny 82 27.8 52 11.1 35 35 S 9 15 29.96 1015 10 16 0.00 0.00
2:53 pm 14:53 Sunny 83 28.3 54 12.2 37 37 SW 14 22 29.93 1013 10 16 0.00 0.00
3:53 pm 15:53 Mostly Sunny 83 28.3 55 12.8 38 38 SSW 13 20 29.91 1013 10 16 0.00 0.00
4:53 pm 16:53 Partly Cloudy 83 28.3 56 13.3 40 40 S 13 20 29.88 1012 10 16 0.00 0.00
5:53 pm 17:53 Partly Cloudy 83 28.3 57 13.9 41 41 S 13 20 29.86 1011 10 16 0.00 0.00
6:53 pm 18:53 Partly Cloudy 82 27.8 57 13.9 42 42 S 13 20 29.85 1011 10 16 0.00 0.00
7:53 pm 19:53 Partly Cloudy 78 25.6 58 14.4 50 50 SSE 10 17 29.84 1010 10 16 0.00 0.00
8:53 pm 20:53 Partly Cloudy 73 22.8 59 15 62 62 SSE 12 19 29.83 1010 10 16 0.00 0.00
9:53 pm 21:53 Partly Cloudy 72 22.2 58 14.4 61 61 SSE 12 19 29.83 1010 10 16 0.00 0.00
10:53 pm 22:53 Mostly Clear 70 21.1 57 13.9 64 64 SSE 13 20 29.82 1010 10 16 0.00 0.00
11:53 pm 23:53 Mostly Clear 68 20 57 13.9 68 68 SSE 15 24 29.82 1010 10 16 0.00 0.00

Powered by AerisWeather